Flag for U.S.A. Weather past 2 weeks in Narragansett, Rhode Island, U.S.A.

Now
58 °F

Fog.


Feels Like: 58 °F
Forecast: 63 / 79 °F
Wind: No wind

Location: Newport State Airport

Current Time: Jul 5, 2015 at 5:56:22 AM

Latest Report: Jul 5, 2015 at 4:53 AM


Visibility: 3 mi

Pressure: 30.01 "Hg

Humidity: 93%

Dew point: 56 °F

Location of NarragansettLocation

Historic Weather in Narragansett — Graph

°F

Narragansett temperature yesterday

Maximum temperature yesterday: 73 °F (at 1:53 PM)
Minimum temperature yesterday: 59 °F (at 4:53 AM)
Average temperature yesterday: 66 °F

Past Weeks' High & Low Weather Summary

 TemperatureHumidityPressure
High84 °F (Jun 22, 3:53 PM)100% (Jun 21, 8:53 AM)30.17 "Hg (Jun 21, 8:53 AM)
Low52 °F (Jun 27, 4:53 AM)43% (Jul 3, 11:53 AM)29.62 "Hg (Jun 21, 4:53 PM)
Average68 °F76%29.91 "Hg
* Reported Jun 20 3:53 AM — Jul 5 3:53 AM, Narragansett, Weather by CustomWeather, © 2015

Note: Actual official high and low records may vary slightly from our data, if they occured in-between our weather recording intervals... More about our weather records

Advertising

Narragansett weather history for previous 24 hours

 ConditionsComfort  
Time TempWeatherWind HumidityBarometerVisibility
3:53 AM
Sun, Jul 5
58 °FFog.No wind93%30.01 "Hg4 mi
2:53 AM57 °FFog.No wind93%30.01 "Hg3 mi
1:53 AM58 °FFog.No wind93%30.01 "Hg3 mi
12:53 AM58 °FFog.No wind90%30.00 "Hg3 mi
11:53 PM
Sat, Jul 4
59 °FFog.No wind90%29.99 "Hg5 mi
10:53 PM60 °FFog.No wind93%29.98 "Hg6 mi
9:53 PM62 °FPassing clouds.No wind90%29.98 "Hg9 mi
8:53 PM64 °FSunny.No wind84%29.96 "Hg4 mi
7:53 PM68 °FSunny.No wind70%29.94 "Hg10 mi
6:53 PM71 °FScattered clouds.No wind61%29.92 "Hg10 mi
5:53 PM70 °FPassing clouds.3 mph66%29.92 "Hg10 mi
4:53 PM71 °FOvercast.5 mph53%29.94 "Hg10 mi
3:53 PM72 °FOvercast.3 mph49%29.95 "Hg10 mi
2:53 PM71 °FOvercast.6 mph57%29.96 "Hg10 mi
1:53 PM73 °FPartly sunny.6 mph55%29.96 "Hg10 mi
12:53 PM71 °FOvercast.6 mph55%29.96 "Hg10 mi
11:53 AM71 °FPassing clouds.8 mph57%29.97 "Hg10 mi
10:53 AM69 °FSunny.5 mph68%29.98 "Hg10 mi
9:53 AM68 °FSunny.5 mph76%29.98 "Hg10 mi
8:53 AM68 °FSunny.5 mph82%29.98 "Hg10 mi
7:53 AM66 °FSunny.6 mph84%29.99 "Hg10 mi
6:53 AM64 °FSunny.No wind90%29.99 "Hg10 mi
5:53 AM61 °FClear.No wind93%29.99 "Hg10 mi
Weather by CustomWeather, © 2015

See weather overviewHow to use our weather pages